GFSSGP_700_rhum_060.txt.gz
RH
8 8 8 9 19 25 27 28 29 32 33 34 35 37 36 41 38 38 35 30 46 44 37 44 63 78 85 78 62 59 50 62 60 75 43 19 11 9 5 8 7 10 11 12 15 16 16 16 17
8 7 13 21 25 27 28 25 27 29 36 36 36 43 43 41 36 42 42 41 48 61 65 84 86 82 86 78 72 60 56 72 65 41 13 12 10 5 5 6 10 12 13 18 19 17 17 19 20
8 9 23 25 26 28 27 27 27 27 41 44 39 38 43 46 41 42 44 46 46 58 74 70 90 98 92 87 80 72 62 64 55 21 8 8 6 7 7 10 12 13 16 19 19 19 22 23 23
8 12 25 24 25 30 28 30 30 33 32 37 37 36 38 37 40 42 44 46 49 57 69 76 69 82 99 86 89 76 72 80 43 24 7 8 13 14 13 15 15 18 20 19 24 25 27 28 28
15 20 23 26 30 32 32 33 33 34 33 32 31 30 29 31 33 36 47 45 56 67 58 63 69 81 95 88 81 86 84 94 55 42 16 18 19 19 17 17 18 23 23 24 27 29 31 32 31
13 19 27 25 30 31 33 33 31 30 30 30 30 32 33 36 44 50 46 46 43 59 62 66 82 85 84 78 74 71 91 90 24 20 18 22 23 22 22 20 22 25 30 29 30 33 35 36 33
17 27 25 26 27 26 32 33 32 32 33 34 38 40 42 40 37 48 52 54 54 57 66 69 74 81 86 91 87 89 99 96 55 48 24 25 28 29 27 25 29 30 32 31 34 40 41 39 33
27 27 23 27 26 26 27 29 32 34 37 36 44 46 50 47 28 32 42 50 57 72 75 76 87 87 96 100 92 92 92 94 43 25 24 28 33 33 34 33 36 34 32 35 40 40 36 31 23
26 28 26 26 28 32 27 30 35 39 40 42 46 47 50 50 29 28 38 59 65 69 89 92 97 97 94 99 100 100 97 96 58 38 30 34 35 40 42 42 40 37 36 38 42 42 32 24 21
26 26 26 27 33 33 26 32 37 39 41 44 47 44 41 35 29 29 60 72 90 92 96 97 99 100 100 100 99 90 87 100 94 58 39 39 39 49 51 47 47 44 42 37 37 32 26 23 22
26 26 27 26 34 30 27 31 34 40 39 42 45 44 38 34 33 32 67 88 81 90 99 100 100 100 100 100 100 98 97 98 96 81 45 40 49 56 54 50 52 47 37 42 37 49 42 30 27
28 27 27 26 31 30 29 29 28 42 33 37 46 31 29 30 46 37 54 86 90 86 99 99 99 99 96 99 100 99 100 98 99 91 48 46 55 58 58 59 50 48 52 46 39 43 51 46 37
26 26 28 31 32 30 28 28 31 27 27 33 45 26 23 39 54 76 50 74 76 84 92 100 89 90 84 75 83 93 100 100 98 93 61 55 58 62 65 58 53 55 59 49 44 44 51 54 48
30 28 28 29 32 30 28 30 27 26 29 35 46 35 23 33 48 78 95 58 66 79 88 92 98 99 94 90 95 94 97 100 100 98 91 69 66 68 73 65 58 56 53 51 47 44 45 53 56
28 27 27 26 27 29 28 26 26 28 36 39 47 48 32 26 28 61 76 100 98 96 92 93 89 99 98 99 100 100 100 98 97 99 98 69 74 80 73 70 66 61 63 51 56 60 49 46 46
25 24 20 23 25 28 31 28 32 32 37 36 44 47 43 21 20 22 43 83 90 84 84 93 98 97 90 100 100 100 97 81 77 99 90 75 88 84 75 71 77 65 53 51 63 65 53 49 44
30 26 18 19 24 32 35 31 33 32 35 33 42 46 31 18 21 23 21 44 81 90 93 100 96 99 97 100 99 100 97 64 94 99 97 97 98 89 75 75 78 68 56 50 60 72 66 52 49
26 22 17 17 29 35 34 28 31 37 34 32 39 38 21 14 22 24 19 36 72 94 100 97 99 96 98 97 100 100 98 84 88 97 98 92 89 88 78 78 81 74 67 55 65 63 78 69 56
27 21 20 21 33 36 30 31 32 37 35 33 40 27 17 12 20 26 22 39 60 90 97 95 99 98 99 95 100 99 98 60 76 84 80 85 94 95 90 94 94 73 69 77 83 67 66 78 75
29 33 18 30 34 37 31 32 32 35 34 31 37 44 25 13 18 27 28 30 44 57 79 94 95 100 97 100 99 100 99 92 94 94 83 92 96 94 94 98 97 88 87 83 73 74 66 72 74
30 29 16 34 34 38 31 28 31 32 32 31 32 30 28 14 16 27 31 28 43 39 43 72 84 92 100 98 100 99 100 100 100 98 95 91 97 99 97 98 96 88 71 63 65 69 75 68 71
27 16 26 40 43 44 38 48 30 31 29 28 27 34 36 18 12 24 30 33 35 42 33 28 48 69 89 100 98 100 99 99 98 99 97 98 98 97 91 95 90 74 63 52 61 60 63 57 58
22 17 37 43 44 46 40 41 34 31 31 29 28 34 37 24 14 20 30 31 33 37 37 27 27 32 54 76 91 96 99 99 99 95 100 100 99 98 87 87 86 66 62 55 52 53 55 61 59
26 36 43 43 42 56 38 39 36 33 28 24 22 28 34 32 23 17 25 25 24 31 31 33 30 28 28 33 40 43 52 55 60 64 68 80 84 86 76 79 70 63 60 52 45 54 89 97 96
38 43 49 51 64 65 36 40 37 33 28 36 25 24 31 35 39 26 22 24 25 25 31 32 29 29 32 30 30 34 36 36 36 36 39 44 49 48 55 64 63 59 51 40 46 86 95 100 99
44 43 46 60 68 52 45 50 33 38 38 35 30 29 31 34 37 41 31 23 24 27 25 24 26 26 28 33 37 34 33 34 35 36 37 37 38 42 52 56 53 38 33 42 80 97 100 96 96
41 44 40 41 61 71 45 38 34 26 28 32 28 26 25 30 34 36 39 39 38 36 30 27 26 27 25 30 38 43 45 46 43 46 51 46 37 34 35 36 34 39 57 78 84 98 90 91 92
31 36 42 46 75 78 56 50 34 30 34 30 30 27 26 27 30 35 38 40 44 47 50 46 38 31 29 30 32 37 44 48 52 56 59 64 68 71 67 76 74 70 88 94 91 85 89 93 94
39 41 41 41 45 60 62 48 32 28 35 36 31 28 28 28 26 32 37 40 44 50 51 50 48 48 43 35 33 35 39 43 49 53 57 72 74 78 94 100 99 98 97 97 94 99 98 88 87
41 39 37 42 50 49 46 42 34 32 36 34 32 30 28 28 27 26 27 29 32 36 43 51 53 52 51 53 48 47 51 43 59 62 59 58 63 67 92 95 98 100 99 94 97 89 100 99 89

GFSSGP_700_rhum_066.txt.gz
RH
6 6 6 7 27 20 18 21 26 26 29 30 31 31 43 36 41 40 31 27 36 36 38 41 66 77 77 52 54 53 65 80 74 86 71 74 36 28 41 15 10 10 12 12 13 16 16 15 15
7 7 8 20 24 17 16 23 24 26 27 28 26 31 32 45 26 33 31 27 36 40 43 39 73 84 80 51 61 68 80 82 73 76 80 76 53 25 34 14 12 14 14 14 17 17 16 17 17
8 7 26 30 24 18 18 24 26 29 27 28 31 30 34 46 29 29 28 33 33 42 42 59 84 90 70 68 71 82 67 74 70 71 75 77 71 39 12 14 14 16 15 18 19 17 17 18 18
8 8 17 28 21 24 25 28 31 30 30 30 32 50 36 33 35 36 37 41 41 53 54 87 91 95 94 79 86 71 67 76 75 69 64 65 50 22 8 12 14 15 17 20 19 18 20 20 20
9 10 22 22 22 29 32 32 29 31 33 32 33 45 44 39 41 44 43 39 49 54 69 81 79 92 62 99 94 73 69 76 60 68 61 68 40 11 9 14 15 17 22 22 20 22 23 23 24
23 17 21 16 22 30 30 32 29 34 38 41 35 48 42 44 47 50 47 46 49 54 64 82 78 77 62 85 92 86 78 68 61 73 62 47 10 10 6 18 17 21 23 23 26 26 27 27 27
27 23 15 16 21 27 28 31 32 34 33 41 38 37 53 46 49 48 54 53 47 59 62 81 81 83 69 76 91 88 88 73 85 78 67 57 65 11 8 18 21 25 26 28 29 30 30 30 26
25 25 21 19 22 25 28 28 29 28 33 29 34 42 58 45 48 41 46 49 33 40 57 69 70 93 86 83 85 88 98 92 93 90 85 40 69 38 19 21 25 26 31 32 33 34 34 30 24
13 24 20 19 22 25 29 28 34 24 27 30 30 35 42 49 39 33 34 34 30 37 60 76 82 96 98 88 86 92 91 94 98 97 70 27 46 42 27 22 28 32 35 39 39 40 38 33 26
22 23 19 22 23 27 30 32 31 27 32 28 26 29 41 50 29 32 29 34 32 35 60 76 88 92 89 97 84 98 94 92 98 90 77 93 84 41 30 27 35 40 42 48 47 42 36 28 23
22 23 19 25 26 30 31 33 30 28 30 38 30 30 38 50 27 25 23 52 45 56 71 82 95 97 94 97 99 96 87 100 98 98 94 99 93 31 30 32 42 47 54 51 45 37 30 25 22
23 24 21 24 29 28 29 34 29 31 27 26 27 31 39 52 33 22 35 70 63 82 88 94 94 99 98 100 94 88 99 100 99 97 96 97 62 33 33 38 43 57 56 51 45 36 28 24 22
16 21 25 19 26 26 27 24 37 27 29 26 29 36 45 52 43 19 31 58 61 84 98 95 93 99 100 98 100 100 100 100 100 100 99 70 50 40 42 44 56 62 58 52 42 32 28 28 26
24 25 23 24 25 32 25 31 31 29 28 31 33 40 44 51 32 22 19 40 47 70 94 90 97 99 98 100 100 100 99 98 100 100 100 70 53 40 44 57 66 62 50 54 57 51 46 42 38
26 28 28 28 25 30 30 31 29 32 28 34 38 38 46 47 28 24 21 32 54 61 99 90 98 98 100 100 99 100 100 100 100 99 97 63 48 41 61 70 69 57 58 64 68 70 61 60 55
29 30 26 23 24 28 22 22 24 28 31 34 37 38 44 40 31 25 27 23 41 91 96 96 96 100 100 100 100 98 100 100 100 100 91 59 53 63 75 64 67 67 64 69 72 58 50 47 56
36 27 26 24 26 30 30 27 36 31 29 32 35 38 41 35 25 23 27 24 38 59 96 98 88 99 100 100 98 100 100 100 100 100 97 63 67 90 97 85 75 64 71 74 72 64 69 58 47
27 32 26 26 28 16 32 35 31 36 31 31 34 37 40 34 18 21 28 28 38 62 95 98 95 100 95 98 97 99 100 100 100 99 74 75 91 88 90 91 86 75 74 75 66 67 76 76 62
26 26 25 22 27 21 26 28 30 32 32 33 33 34 36 42 18 21 29 31 36 81 99 98 91 92 94 96 99 99 100 100 100 100 96 78 98 95 95 87 92 94 89 80 68 64 67 78 86
31 29 26 23 32 24 21 27 30 29 32 30 31 30 32 35 28 20 28 30 32 67 95 92 88 88 94 95 99 94 98 100 100 100 99 86 95 94 99 100 98 97 87 85 77 84 77 85 81
32 29 28 27 35 30 34 31 29 27 28 25 26 30 29 34 30 16 27 26 34 36 74 81 83 81 91 92 95 100 99 100 98 98 99 99 98 100 99 99 100 98 96 91 85 86 92 88 89
33 32 33 33 34 20 38 27 25 28 28 30 28 27 29 32 37 13 24 24 30 28 30 58 77 88 94 98 97 99 89 98 95 97 99 98 90 99 99 100 99 98 99 94 93 91 95 90 96
35 33 39 36 34 28 25 33 22 29 30 26 28 32 26 27 39 16 20 20 24 31 26 27 38 54 83 90 90 98 100 100 98 98 100 100 90 100 99 99 99 97 96 93 93 88 86 84 93
42 39 40 39 31 34 30 34 24 22 29 28 31 37 28 27 34 24 17 21 18 25 25 26 26 36 53 84 98 97 98 99 99 99 98 99 100 98 98 98 98 97 96 97 96 98 98 89 82
43 36 36 37 40 32 32 36 30 27 29 33 36 37 33 24 34 31 23 22 19 16 19 20 26 26 33 50 73 86 99 97 98 99 100 99 98 98 93 98 96 89 93 97 99 99 98 79 75
38 35 32 39 38 32 40 35 31 31 32 25 31 28 31 24 26 36 32 23 25 21 16 16 21 27 26 28 34 52 70 78 99 98 99 99 98 96 99 97 94 93 98 98 99 96 90 80 78
44 43 37 41 51 37 36 36 36 32 31 32 34 30 30 30 30 34 37 32 24 26 23 18 16 20 27 30 31 34 32 33 38 60 73 93 98 100 98 99 97 98 99 98 93 88 80 81 76
47 44 44 43 44 46 33 36 32 31 30 30 38 39 30 28 32 34 36 39 38 31 30 27 23 20 23 30 34 36 38 40 40 38 37 41 53 76 79 89 88 88 94 89 77 71 67 68 66
47 45 46 38 36 38 40 34 37 35 34 36 38 35 31 31 32 34 35 38 39 41 43 43 42 36 26 23 28 37 40 43 46 48 47 49 43 41 45 52 62 64 61 57 60 59 57 52 47
38 40 41 40 42 43 40 36 33 34 38 31 32 32 35 29 28 30 33 38 36 36 41 46 47 46 44 43 31 27 30 34 40 45 50 52 53 54 53 45 41 41 40 41 41 40 39 40 45

GFSSGP_700_rhum_069.txt.gz
RH
8 6 6 9 30 21 15 14 17 17 20 26 32 33 34 41 31 39 42 26 21 32 38 40 50 83 79 71 54 56 56 62 69 79 79 85 79 63 36 10 19 7 10 11 11 13 13 13 13
8 7 7 36 21 16 12 16 18 18 21 27 33 33 34 35 47 51 44 23 25 33 34 44 48 63 80 73 54 60 52 57 69 80 78 90 86 72 45 16 13 8 12 12 14 15 15 15 15
9 7 35 27 21 16 15 16 18 21 24 24 30 38 41 41 58 34 31 32 28 36 35 37 53 68 81 82 72 73 65 76 80 85 77 97 90 77 58 17 14 11 13 13 17 17 16 17 17
9 20 32 22 17 17 20 18 23 23 25 31 30 32 50 54 38 38 42 44 42 37 40 40 52 71 92 76 86 81 88 89 87 82 81 92 85 61 32 14 17 12 13 16 19 18 18 18 18
11 31 25 20 18 17 23 22 24 24 26 34 39 34 39 54 39 44 46 46 44 42 46 39 49 92 97 59 96 94 98 93 95 73 70 80 64 46 19 15 20 14 14 20 20 19 20 20 20
31 28 23 18 13 16 23 23 25 24 26 29 39 39 41 49 37 43 44 38 47 48 51 50 63 66 99 100 92 74 99 93 86 77 69 67 65 59 19 14 18 16 18 21 21 21 22 22 23
32 25 21 15 13 15 22 25 28 25 25 25 37 44 43 52 41 46 40 32 38 49 44 48 55 84 84 65 69 77 100 95 86 73 75 66 36 15 16 13 18 18 20 22 24 24 25 26 24
31 26 20 17 15 14 20 24 26 27 27 31 29 36 40 58 36 44 29 22 24 41 36 38 51 60 68 64 85 79 100 96 86 78 79 65 39 51 10 23 21 20 24 25 27 28 28 27 23
30 25 20 17 16 16 20 25 25 27 31 29 44 34 32 29 32 43 34 24 24 22 28 28 43 62 62 77 85 91 93 99 95 78 91 79 51 79 41 36 24 25 26 28 30 31 31 25 21
30 22 19 17 17 17 19 22 24 27 26 26 34 51 38 30 36 48 32 22 19 28 33 37 43 52 64 76 90 92 99 82 98 98 95 97 42 89 26 31 28 29 30 32 35 35 31 26 22
27 23 18 18 19 19 20 22 24 28 28 28 38 43 50 33 40 46 42 18 36 69 65 41 44 60 68 80 85 99 90 99 89 99 84 93 66 85 61 33 31 33 34 38 40 40 32 28 24
23 23 22 20 19 22 24 24 25 27 29 34 46 26 30 38 44 45 26 22 48 64 62 59 61 68 81 85 94 98 89 95 90 100 99 97 96 97 53 40 29 36 36 44 46 37 32 28 25
24 22 22 20 19 21 24 24 27 27 27 33 40 30 34 38 43 42 20 22 38 62 59 76 82 92 85 96 98 91 100 100 99 99 96 100 100 97 46 36 34 44 41 50 45 36 30 26 25
22 23 25 20 20 22 22 24 27 26 29 36 42 34 36 40 42 39 20 22 33 40 51 87 97 86 99 99 94 100 99 100 100 99 100 99 100 90 44 53 43 46 52 51 44 38 29 26 27
26 24 23 24 21 20 20 22 26 25 26 37 50 36 37 39 38 32 20 24 28 38 46 78 87 99 95 99 98 99 97 98 100 100 100 100 99 91 50 71 43 54 60 53 46 36 33 34 34
29 25 24 22 22 23 24 24 22 24 32 41 55 56 36 37 36 18 18 25 26 38 63 69 88 88 98 96 98 99 98 98 100 100 100 99 94 58 50 47 52 60 59 52 55 55 56 54 53
31 26 24 24 22 22 25 25 23 39 37 40 49 60 36 38 37 15 14 24 27 40 58 92 90 99 99 100 100 100 99 100 98 100 100 97 72 51 58 58 72 66 52 62 68 66 64 56 53
26 24 26 24 22 24 21 28 26 29 38 41 42 56 69 34 39 16 13 23 29 40 78 98 89 95 98 98 98 100 99 100 100 99 98 98 87 60 62 73 75 62 61 73 76 77 71 63 56
26 22 23 24 22 24 25 23 23 23 28 37 44 47 65 38 38 21 14 23 31 37 77 96 99 93 99 92 95 98 99 100 100 100 100 100 94 82 85 94 93 79 84 86 87 74 70 73 69
31 26 25 24 22 24 24 19 19 21 24 29 38 45 53 45 32 26 13 22 31 35 64 95 79 88 99 96 86 88 98 99 100 100 99 92 70 72 89 82 83 87 90 92 80 71 64 73 80
35 32 28 26 24 29 26 23 22 22 24 25 32 34 43 62 29 34 13 20 28 25 63 84 79 80 93 84 92 94 98 99 100 100 99 96 71 81 89 93 94 96 99 95 86 72 66 70 80
34 32 30 27 27 26 23 19 22 21 23 26 30 36 38 55 29 35 14 16 20 25 30 63 77 76 81 79 87 87 85 94 97 99 100 99 85 85 90 91 100 98 100 96 84 80 75 79 98
39 34 31 30 30 29 27 22 21 22 20 21 22 26 44 48 30 34 18 17 14 23 24 27 51 68 76 85 88 81 95 100 100 100 100 100 97 96 99 100 99 91 92 92 92 88 84 74 96
36 37 34 33 33 32 30 27 22 21 20 23 22 25 37 52 28 33 24 18 16 15 19 23 26 36 53 70 90 88 99 96 99 97 99 99 99 99 96 96 99 97 99 95 99 98 95 97 96
34 36 34 38 36 36 27 26 24 21 23 24 26 27 37 47 30 31 28 21 21 12 13 13 22 23 31 47 76 89 93 91 99 100 99 98 98 99 97 97 98 99 93 98 94 95 95 97 90
36 35 34 44 42 30 28 28 27 27 26 29 31 33 33 45 33 28 32 22 23 20 12 11 18 22 23 25 40 68 88 89 92 96 88 98 99 100 98 89 96 99 99 97 96 91 94 86 86
40 36 32 32 44 38 30 30 31 32 28 26 27 32 37 43 46 26 30 31 24 25 21 13 13 18 21 26 26 30 47 58 70 72 88 90 93 97 98 100 99 99 95 90 85 86 89 95 95
50 41 36 32 49 52 34 31 28 28 27 26 31 36 41 45 55 31 28 36 30 25 27 23 17 14 20 24 27 32 35 33 36 39 39 47 76 89 97 99 98 89 81 84 90 94 86 84 87
48 43 39 36 36 39 42 36 32 32 34 30 35 37 43 50 49 43 34 35 36 37 31 34 31 23 18 19 28 29 34 40 41 39 35 35 38 44 55 69 76 84 84 84 84 80 82 82 78
56 45 44 40 40 35 37 47 36 35 36 37 36 36 38 40 51 35 35 35 36 39 36 38 43 42 40 34 22 24 34 37 38 42 47 46 47 46 41 41 44 47 52 59 67 69 57 63 64

GFSSGP_700_rhum_072.txt.gz
RH
10 9 6 16 39 30 20 16 14 16 16 22 24 28 30 34 28 46 59 49 25 21 19 24 35 44 91 84 66 56 65 68 74 75 78 72 69 63 26 15 13 6 10 8 10 10 11 11 11
11 9 10 32 37 25 16 14 16 17 18 21 23 27 31 33 48 59 75 38 25 24 21 31 38 38 69 92 63 57 62 75 75 86 85 83 78 69 41 20 16 8 10 10 10 12 13 13 12
11 9 32 40 31 22 18 16 17 18 20 22 21 25 34 35 49 46 45 32 27 25 24 22 31 46 56 98 75 74 55 80 92 97 97 90 86 82 61 26 16 8 10 11 13 15 15 14 14
11 13 30 26 22 18 16 18 20 21 20 24 26 27 31 44 50 48 36 36 34 32 28 23 26 35 58 78 87 68 60 76 100 99 100 94 93 84 60 22 16 9 12 13 16 16 16 16 16
11 29 30 26 22 18 16 20 20 22 21 27 29 32 36 50 48 47 34 34 26 30 41 34 30 36 46 83 94 97 81 77 91 95 100 92 95 76 40 16 14 11 13 16 18 18 18 18 18
32 28 27 21 18 15 15 20 21 22 23 24 25 32 39 42 40 42 40 38 19 23 40 43 41 43 55 83 93 97 99 98 89 100 95 97 86 64 40 14 16 13 16 18 20 19 19 19 19
34 28 26 22 18 15 13 21 23 23 22 23 33 39 38 49 47 48 29 35 23 19 33 45 45 54 59 57 70 86 85 96 100 98 87 97 78 61 49 14 19 17 17 21 20 20 20 22 22
34 30 25 22 19 16 14 21 23 24 24 26 31 30 32 57 39 28 28 31 39 21 23 37 49 40 56 61 70 82 84 96 89 98 84 96 74 29 25 31 18 18 21 22 22 22 24 25 23
32 29 26 22 18 15 15 19 22 23 22 27 26 32 35 30 37 30 33 35 32 23 19 21 33 41 42 61 62 72 78 69 100 97 82 91 55 31 25 18 21 21 24 23 25 26 27 26 21
31 30 25 21 16 16 16 16 21 23 24 25 24 33 45 55 39 32 38 42 32 20 23 38 38 41 48 65 73 75 80 76 99 93 91 91 59 58 66 32 23 25 26 27 28 28 29 28 22
28 28 24 20 17 18 18 18 19 21 22 26 27 33 45 61 28 34 36 27 18 21 52 72 76 57 54 68 65 75 91 90 96 99 96 94 65 71 85 30 26 25 28 29 30 32 31 27 22
25 24 24 22 20 19 18 19 20 20 23 26 27 32 36 28 30 35 36 17 18 26 45 60 60 50 58 61 67 76 83 87 98 100 97 98 93 79 95 35 26 27 31 32 36 35 34 28 25
25 21 20 20 20 20 19 20 22 22 24 25 25 37 38 31 32 35 35 18 20 25 32 46 52 51 58 67 86 80 92 88 100 99 98 98 94 92 100 42 33 31 33 43 40 41 39 30 26
26 21 19 20 20 21 19 20 20 22 24 26 27 40 42 31 31 35 30 14 19 22 30 37 57 77 87 85 93 95 90 95 98 100 94 92 99 100 100 89 38 35 37 43 45 44 36 28 24
27 24 23 21 21 22 20 20 20 20 22 24 24 35 52 38 32 35 30 13 17 23 27 40 54 87 90 92 99 99 99 90 94 92 99 98 100 100 99 90 46 44 42 50 46 42 34 26 25
31 28 26 23 21 21 22 21 21 22 22 22 28 39 61 44 32 34 22 13 16 24 26 41 69 78 90 100 97 97 97 98 100 100 100 99 98 98 100 96 57 50 58 53 49 43 32 27 28
33 29 25 23 21 21 21 22 23 23 28 28 33 42 55 61 38 33 17 11 18 24 30 41 81 92 83 93 100 99 98 99 100 100 100 96 97 98 98 90 94 67 63 58 52 41 34 41 43
38 28 26 24 22 22 22 21 22 27 32 34 35 36 50 61 68 38 25 10 23 23 33 53 88 93 90 88 99 98 100 98 100 100 100 98 97 98 98 99 89 95 100 77 54 48 57 58 59
37 30 26 22 23 23 23 23 22 21 24 28 35 39 44 60 56 55 31 11 21 22 36 70 88 85 89 81 90 99 98 90 95 99 98 98 99 99 99 91 69 70 67 57 63 62 63 63 62
41 39 34 26 24 24 23 23 23 20 22 23 30 35 41 55 58 33 31 14 16 23 40 55 82 83 92 81 92 95 99 95 90 97 99 99 98 98 85 52 65 76 70 54 68 68 80 87 83
41 39 36 29 25 25 23 24 26 22 19 19 22 29 37 44 53 42 29 17 13 22 30 66 74 84 76 77 81 87 94 98 98 98 98 98 99 98 82 68 81 87 80 63 76 73 86 87 86
39 39 37 32 30 29 25 24 23 22 21 20 22 26 30 34 52 48 28 21 14 18 22 51 72 76 74 82 73 81 86 86 87 98 98 99 99 100 98 86 89 80 78 71 74 88 83 83 95
45 47 56 39 32 30 27 26 25 21 22 21 22 25 31 33 45 47 28 25 18 13 23 22 37 70 70 72 74 82 86 82 94 96 100 100 99 96 86 81 78 86 91 79 90 85 90 95 99
58 66 80 47 37 36 30 30 27 25 22 20 21 22 25 34 44 49 29 29 20 14 16 19 21 29 54 70 77 85 89 90 84 88 97 99 98 98 92 73 91 91 88 86 86 79 97 94 97
67 85 80 58 44 43 32 30 28 24 23 23 23 23 26 37 47 52 26 30 21 20 10 12 19 21 27 42 62 89 92 90 93 94 96 100 100 99 98 86 80 83 86 84 82 89 98 86 85
58 74 52 64 53 38 32 28 27 24 22 24 27 25 30 36 43 51 31 31 25 23 19 8 12 20 21 26 44 69 91 91 88 95 94 99 100 98 100 99 90 84 86 78 84 89 86 86 91
75 65 52 45 51 52 34 27 32 28 26 26 26 28 30 32 40 46 30 31 29 27 23 20 10 11 19 25 25 40 66 84 86 86 95 100 100 98 100 98 99 97 91 85 89 98 99 97 100
96 61 67 43 60 81 42 35 29 30 28 25 26 32 36 39 41 51 37 27 32 30 26 27 25 17 14 19 23 26 29 38 65 82 83 85 91 94 94 100 99 99 100 96 98 99 98 100 98
68 64 69 48 39 55 60 44 63 37 28 27 34 36 41 47 46 52 57 30 34 35 29 28 30 28 26 18 21 24 25 29 32 34 41 52 65 87 88 90 97 100 100 99 100 99 97 94 90
84 74 65 56 56 40 41 46 37 37 33 34 34 34 38 42 48 58 62 45 34 36 36 37 34 36 36 37 34 25 23 27 28 29 34 38 38 40 46 61 82 85 87 99 98 93 80 79 83

GFSSGP_700_rhum_075.txt.gz
RH
11 10 9 10 23 27 26 19 19 17 17 20 19 20 25 30 33 34 48 55 51 41 28 19 18 28 24 50 87 72 71 74 74 77 73 66 54 37 14 20 14 8 8 8 9 10 10 10 10
12 10 9 24 28 33 22 20 19 17 17 19 20 22 21 33 36 45 43 46 40 32 23 20 20 25 35 49 87 68 64 65 85 80 82 78 74 68 32 17 15 7 10 8 11 11 11 11 11
12 10 10 28 35 23 23 20 17 18 18 18 18 20 26 32 38 42 42 40 37 30 24 22 23 23 33 46 79 75 64 72 78 96 91 87 85 78 50 19 17 9 10 10 11 13 13 12 12
12 11 13 31 23 12 21 18 19 19 19 20 24 23 28 40 40 37 42 41 37 32 28 29 26 26 29 46 78 94 72 80 80 93 100 95 86 88 58 25 12 10 10 10 13 15 14 14 13
13 15 30 29 23 10 18 19 20 19 19 24 30 29 26 32 41 47 41 40 38 34 20 11 26 32 30 40 68 99 89 93 80 89 99 100 89 93 66 28 11 8 11 12 15 16 16 15 15
15 14 31 30 23 17 20 18 20 19 20 19 20 24 28 34 41 40 38 39 34 32 32 13 28 41 40 40 66 96 98 98 81 99 98 98 98 84 62 26 10 10 11 14 17 17 17 17 17
13 17 29 26 25 23 20 20 20 22 22 21 24 32 38 40 36 34 44 32 28 30 36 21 19 36 45 41 55 68 92 86 98 92 99 98 100 75 58 19 11 12 15 18 19 18 18 19 18
15 30 38 32 30 24 16 19 21 21 22 22 22 26 30 30 32 35 28 34 30 35 39 23 21 21 43 50 52 68 74 74 94 98 89 97 98 70 57 59 15 14 16 19 20 20 20 20 21
25 46 41 27 26 20 18 20 20 20 21 24 26 26 24 26 32 37 41 29 33 28 26 24 21 20 29 52 47 55 73 76 75 86 89 99 98 72 46 73 27 15 18 22 21 21 22 23 23
39 43 38 23 23 23 21 18 18 21 21 23 24 28 29 32 44 49 39 30 31 21 13 21 39 68 43 38 49 53 68 76 86 88 85 100 97 46 20 36 48 20 19 23 22 24 25 25 23
28 36 32 31 26 27 24 19 18 18 22 22 25 28 30 34 36 33 28 32 36 24 17 26 47 74 83 53 51 59 69 81 92 85 89 99 94 30 38 16 20 18 24 25 25 26 26 26 22
33 28 28 26 26 25 22 21 20 18 20 21 23 26 26 29 31 34 30 32 33 15 17 28 41 58 82 78 65 61 66 79 83 99 100 96 81 46 62 34 22 21 22 27 29 28 27 25 23
42 33 30 27 24 23 21 21 20 19 20 21 23 25 26 32 33 33 30 30 27 16 17 25 34 38 54 57 63 60 72 84 84 93 97 99 85 66 69 65 26 24 28 28 30 31 29 27 25
40 36 31 28 24 22 20 20 20 19 18 20 22 24 26 27 33 33 27 31 29 16 17 23 31 36 50 50 66 70 96 73 90 93 100 99 97 84 81 98 39 29 32 31 33 35 34 30 28
40 39 35 30 26 24 20 20 21 19 20 20 20 24 25 33 32 33 30 26 21 12 16 25 29 39 52 68 77 96 98 89 89 96 100 97 99 97 92 98 34 34 35 33 41 41 37 34 30
42 37 34 28 27 24 24 22 22 21 20 20 20 22 24 32 32 35 29 22 11 10 19 27 33 42 67 81 84 87 98 98 100 95 98 98 98 98 100 98 64 35 37 39 49 52 41 32 29
42 42 36 34 30 24 24 23 21 21 22 23 24 23 27 32 41 45 29 28 13 12 22 30 39 53 79 82 90 90 96 100 95 98 100 93 99 99 100 98 98 55 45 48 49 47 39 31 27
50 45 40 34 22 26 24 22 21 21 22 24 25 26 32 41 45 48 40 30 14 14 22 35 55 74 83 82 84 99 98 86 96 99 100 100 99 98 97 100 99 86 56 56 49 48 42 32 28
50 54 49 38 32 30 33 25 22 22 21 26 30 32 34 37 48 50 45 29 17 14 24 46 67 85 88 80 94 92 99 99 100 100 100 98 95 98 99 99 99 66 87 68 57 54 43 34 41
56 52 48 43 40 35 34 32 24 24 23 23 24 30 34 37 48 48 45 30 20 14 21 51 61 82 84 84 83 96 86 100 100 100 100 100 100 100 99 100 99 100 96 98 94 62 44 49 57
60 55 46 42 40 39 34 32 24 23 23 22 20 24 30 39 41 42 44 40 23 14 19 49 54 70 75 85 86 88 96 96 98 93 98 100 99 98 100 98 98 100 100 100 92 68 63 65 69
59 47 46 43 42 65 43 37 28 25 24 23 19 19 29 38 40 43 47 41 25 17 16 30 59 69 74 77 75 80 72 78 91 94 97 97 99 100 99 100 100 100 99 99 90 64 71 74 71
61 47 53 52 63 67 51 43 34 28 26 25 22 19 26 30 26 27 34 39 28 20 12 19 42 61 71 70 86 77 82 86 89 92 99 100 100 100 98 99 98 81 85 91 79 61 78 83 83
91 58 66 61 80 86 63 53 33 29 26 25 23 21 20 25 28 30 35 39 32 20 13 11 19 32 43 55 72 77 84 82 79 84 98 100 100 100 99 100 80 56 74 79 75 66 80 90 88
82 92 92 92 96 90 52 46 36 30 25 27 23 22 22 24 30 34 34 39 31 21 19 8 12 19 23 29 49 74 84 93 89 84 86 94 100 99 98 97 95 82 72 67 77 79 78 96 96
90 99 88 92 87 56 38 38 33 28 26 26 23 22 23 28 31 33 34 38 31 23 22 15 8 16 20 24 30 50 64 93 90 89 95 91 100 100 99 96 94 91 83 76 80 84 88 94 92
90 99 83 98 73 95 62 35 32 29 26 25 23 25 26 28 34 34 35 29 32 26 25 22 12 9 14 19 23 28 37 56 78 87 94 99 100 100 100 100 99 97 95 86 91 92 96 94 98
99 94 96 99 93 93 62 53 33 28 26 26 26 26 31 32 33 35 36 28 29 29 25 26 24 14 13 16 21 23 27 30 37 65 70 75 87 99 99 99 100 100 96 96 98 98 96 98 98
99 99 99 99 95 77 90 69 47 33 27 25 28 30 33 39 37 40 39 35 28 32 31 27 28 29 20 17 19 22 25 26 28 27 35 46 60 75 84 98 99 98 99 99 96 97 99 97 98
93 98 99 98 87 71 61 72 52 38 34 30 35 36 35 36 48 49 48 52 33 33 36 32 31 32 34 28 27 27 26 23 24 27 28 31 33 37 43 58 66 77 85 87 94 98 98 98 89